Regional Weather Roundup
Issued by NWS

Home | Current Version | Previous Version | Graphics & Text | Print | Product List | Glossary On
Versions: 1 2 3 4 5 6 7 8 9 10 11 12 13 14 15 16 17 18 19 20 21 22 23 24 25 26 27 28 29 30 31 32 33 34 35 36 37 38 39 40 41 42 43 44 45 46 47 48 49 50
403
ASUS43 KDTX 230510
RWRMI
MICHIGAN HOURLY REGIONAL WEATHER ROUNDUP
NATIONAL WEATHER SERVICE DETROIT/PONTIAC MI
ISSUED BY NATIONAL WEATHER SERVICE GRAND RAPIDS MI
1200 AM EST THU FEB 23 2017

NOTE: "FAIR" INDICATES FEW OR NO CLOUDS BELOW 12,000 FEET WITH NO
SIGNIFICANT WEATHER AND/OR OBSTRUCTION TO VISIBILITY.

MIZ047>049-052>055-059>063-066>070-074>076-081>083-230600-
SOUTHEAST LOWER MICHIGAN

CITY           SKY/WX    TMP DP  RH WIND       PRES   REMARKS
ADRIAN         PTCLDY    54  53  97 SW10      29.70F
ALMA           MOCLDY    53  50  90 SW10      29.61F
ANN ARBOR      PTCLDY    54  53  97 S7        29.69F
BAD AXE        PTCLDY    53  49  89 SW7       29.63R
DETROIT CITY   CLOUDY    57  55  93 SW10      29.69F
DETROIT        CLOUDY    57  54  89 S8        29.70S FOG
FLINT          PTCLDY    56  51  84 S12       29.64F
GROSSE ILE     FOG       45  44  99 S7        29.70S VSB<1/4
HILLSDALE      MOCLDY    54  52  94 S7        29.69S FOG
HOWELL         CLEAR     56  50  80 S9        29.66S

CITY           SKY/WX    TMP DP  RH WIND       PRES   REMARKS
JACKSON        PTCLDY    57  52  83 S14       29.67F
LANSING        PTCLDY    56  51  84 S15       29.63F
MASON          PTCLDY    56  53  89 S7        29.65F
MONROE         PTCLDY    53  53  99 S12       29.70S FOG
MT. CLEMENS    MOCLDY    49  49 100 S8        29.67F
PONTIAC        MOCLDY    56  52  86 S13       29.66F
PORT HOPE        N/A     55  50  83 VRB5      29.60S
PORT HURON     CLOUDY    54  54 100 S13       29.69S FOG
TRI CITIES     MOCLDY    56  52  86 SW9       29.62S
YPSILANTI      MOCLDY    57  54  89 S10       29.69F
$$
MIZ043>046-050>051-056>058-064>065-071>073-077>080-230600-
SOUTHWEST LOWER MICHIGAN

CITY           SKY/WX    TMP DP  RH WIND       PRES   REMARKS
BATTLE CREEK   PTCLDY    56  53  90 S15       29.65F
BENTON HARBOR  CLEAR     59  53  80 S10       29.62F
BIG RAPIDS     CLOUDY    56  52  84 SW7       29.56F
COLDWATER      PTCLDY    56  54  91 S7        29.67F
HOLLAND        CLEAR     61  54  77 SW25G33   29.59F
GRAND RAPIDS   PTCLDY    56  51  84 S12       29.60F
KALAMAZOO      PTCLDY    55  50  83 S12       29.64F
MARSHALL       PTCLDY    56  54  92 S9G18     29.65F
MOUNT PLEASANT MOCLDY    56  52  85 S6        29.59F
MUSKEGON       CLEAR     54  50  86 S22G28    29.57F
STURGIS        MOCLDY    55  53  93 S13       29.67F
$$
MIZ016>042-230600-
NORTHERN LOWER MICHIGAN

CITY           SKY/WX    TMP DP  RH WIND       PRES   REMARKS
ALPENA         CLOUDY    45  44  97 CALM      29.57F
BEAVER ISLAND  FOG       38  38 100 E5        29.52F VSB 3/4 WCI  35
BELLAIRE       CLOUDY    45  44  94 CALM      29.50F
CADILLAC       MOCLDY    53  51  95 S9        29.53F FOG
CHARLEVOIX     MIX PCPN  41  41 100 N6        29.55S
GAYLORD        CLOUDY    46  42  86 E3        29.52F FOG
HOUGHTON LAKE  CLEAR     50  48  93 S8        29.54F FOG
MANISTEE       MOCLDY    55  51  86 S9        29.51F
OSCODA         PTCLDY    52  50  93 S6        29.57F FOG
PELLSTON       FOG       41  40  96 N6        29.55S VSB 1/2
TRAVERSE CITY  PTCLDY    44  41  89 NW5       29.49F
LUDINGTON      CLOUDY    53  51  94 S12G18    29.53F FOG
$$
MIZ007>008-015-230600-
EASTERN UPPER MICHIGAN

CITY           SKY/WX    TMP DP  RH WIND       PRES   REMARKS
KINROSS        LGT RAIN  40  40 100 CALM      29.54F VSB 1/2
MACKINAC ISLAN MIX PCPN  39  39 100 N5        29.54F VSB 1/4
NEWBERRY       FOG       37  36  93 N3        29.53F VSB 1/4
S. S. MARIE    FOG       39  38  96 CALM      29.55F VSB 1/4
$$
MIZ004>006-011>014-085-230600-
CENTRAL UPPER MICHIGAN

CITY           SKY/WX    TMP DP  RH WIND       PRES   REMARKS
MANISTIQUE     CLOUDY    38  37  98 N6        29.53S WCI  33
ESCANABA       CLOUDY    37  37 100 N7        29.55S WCI  32
MENOMINEE      CLEAR     39  37  92 N7        29.54S WCI  34
SAWYER-GWINN   CLOUDY    34  33  96 N14       29.58S WCI  24
$$
MIZ001>003-009>011-084-230600-
WESTERN UPPER MICHIGAN

CITY           SKY/WX    TMP DP  RH WIND       PRES   REMARKS
IRON MOUNTAIN  CLOUDY    41  37  86 N5        29.56S
HOUGHTON       LGT SNOW  33  29  85 N15G25    29.64S FOG     WCI  23
COPPER HARBOR    N/A     34  32  92 NE14      29.66R WCI  25
IRONWOOD       LGT SNOW  34  32  93 N8        29.68S VSB 1   WCI  27
$$

ABBREVIATIONS USED IN REMARKS
   TC - TEMPERATURE IN CELSIUS
  WCI - WIND CHILL INDEX
   HX - HEAT INDEX
  VSB - VISIBILITY





USA.gov is the U.S. government's official web portal to all federal, state and local government web resources and services.